Wind_Speed
42 42 41 39 39 37 35 33 31 30 29 27 26 24 24 22 22 22 21 20 20 20 20 19 19 18 18 17 17 17 17 15 14 12 12 12 12 12 11 11 11 12
43 41 40 39 39 38 36 35 32 30 29 28 26 24 22 22 21 21 21 20 19 19 19 20 19 19 19 18 18 18 18 17 15 14 14 13 13 13 12 11 11 12
44 42 40 39 38 37 36 35 33 31 29 29 28 25 24 23 22 21 21 20 19 18 18 19 19 19 19 19 19 19 19 19 17 16 15 14 14 14 13 12 12 13
45 44 42 40 38 37 36 35 34 32 31 30 29 27 26 25 24 22 22 21 20 19 19 19 19 19 19 19 20 20 20 19 18 17 17 17 16 15 14 15 15 15
47 45 44 42 39 38 37 37 36 34 33 31 30 29 28 27 25 24 23 23 22 21 20 20 20 20 20 20 21 21 21 20 20 19 20 19 18 17 16 17 17 17
48 47 45 44 42 40 39 38 37 36 34 33 32 31 30 28 27 25 24 24 24 23 23 22 22 22 21 22 22 23 23 22 21 21 22 21 20 20 19 19 20 20
48 47 46 45 44 43 42 40 39 37 36 34 33 32 31 30 29 27 26 25 25 25 24 24 24 23 23 23 23 24 24 24 23 23 24 23 22 23 22 22 22 22
48 48 47 46 45 44 44 42 40 39 37 36 35 34 33 32 31 29 28 27 27 26 26 26 25 25 24 24 25 25 25 25 25 25 25 24 24 25 25 25 25 25
48 48 48 47 46 46 45 44 42 40 39 38 37 35 34 33 32 31 30 29 28 28 27 27 27 26 26 27 27 27 27 27 27 27 26 26 26 26 25 26 27 27
48 48 48 48 47 47 46 44 43 42 41 40 39 37 36 35 33 33 32 31 30 29 29 29 28 28 28 28 29 29 28 28 29 29 29 28 28 27 27 27 28 28
46 47 48 48 48 47 47 45 44 43 42 41 40 40 38 37 36 35 34 33 32 31 31 31 30 30 30 30 30 30 30 30 30 30 31 31 30 29 29 29 29 29
45 46 47 47 48 47 46 46 45 44 43 42 41 41 40 39 38 37 36 35 34 33 33 32 32 31 31 31 31 31 31 31 32 32 32 33 33 32 32 31 31 31
45 45 45 45 46 46 46 45 45 45 44 43 41 41 41 40 40 39 38 37 36 35 34 34 34 33 33 33 32 33 33 33 34 34 34 34 34 34 34 34 33 32
45 44 43 44 44 45 45 45 45 45 44 43 42 42 42 41 40 40 39 38 37 37 36 36 36 36 35 34 34 34 34 35 35 36 36 36 35 35 35 36 36 35
44 44 44 44 44 45 45 45 45 45 44 44 43 42 42 41 41 40 40 40 39 39 38 38 38 38 37 36 35 35 35 36 36 36 38 38 37 37 37 37 37 37
44 44 44 45 45 46 46 46 46 46 45 45 44 43 42 41 41 41 41 41 41 40 39 39 40 39 38 37 36 36 36 37 37 37 38 39 39 39 38 38 37 37
44 44 45 45 46 46 46 46 46 46 47 46 45 44 43 42 42 42 42 42 42 41 40 40 41 40 38 38 37 37 38 39 39 39 39 39 40 40 40 39 38 38
44 44 44 45 46 46 46 46 46 47 47 47 47 45 44 44 43 43 43 43 42 42 42 41 41 39 39 38 38 38 38 39 40 40 40 40 40 40 40 40 40 40
41 41 42 43 44 45 46 46 47 47 48 48 47 46 45 45 44 44 44 44 44 44 43 42 41 39 39 39 38 37 37 38 39 39 40 40 40 40 41 41 41 41
40 40 40 40 40 41 43 45 47 47 48 48 47 47 47 46 46 45 44 45 45 45 44 43 42 40 39 38 38 37 36 36 37 38 39 40 40 40 40 40 41 41
39 39 38 38 37 38 40 42 44 46 47 47 47 47 48 47 47 46 45 45 45 45 45 44 42 40 39 38 37 36 35 35 36 37 38 39 40 40 40 40 41 41
40 39 38 37 37 37 39 40 41 43 44 45 46 47 47 47 47 47 46 46 45 45 45 45 43 41 40 38 36 35 35 35 36 37 38 39 39 39 40 40 40 41
40 39 39 38 37 38 39 38 38 39 40 42 44 45 46 47 48 47 47 47 46 46 46 45 43 41 40 39 38 36 36 36 36 37 38 39 39 39 39 40 40 39
40 40 39 39 39 39 39 38 37 37 37 38 40 42 43 44 45 46 46 47 47 47 47 46 45 43 42 41 40 38 37 37 37 38 39 40 40 39 39 40 40 40
39 40 40 39 40 39 39 38 37 36 36 36 37 39 39 40 42 43 45 46 46 47 47 47 46 44 43 42 41 40 39 39 38 39 40 40 40 40 40 40 40 39
39 40 40 40 39 39 38 38 37 36 36 37 37 38 38 39 39 41 42 43 44 45 46 46 46 44 43 42 41 40 39 39 39 40 41 41 40 40 40 39 38 38
Wind_Direction
219 219 220 221 222 223 224 225 226 226 223 221 220 219 218 216 216 219 222 223 221 218 217 218 217 216 217 219 222 225 227 228 226 223 220 217 217 220 217 213 209 212
219 219 220 220 221 222 224 226 227 226 224 223 222 220 218 217 218 220 222 223 222 220 217 217 218 219 219 221 223 227 230 231 229 227 226 222 218 221 224 221 216 213
220 220 219 219 219 220 222 223 224 225 225 225 224 222 221 221 222 224 225 223 222 221 219 217 218 220 222 222 223 227 231 234 234 232 232 230 223 222 224 227 226 220
222 222 221 221 220 220 220 221 222 223 224 225 226 226 226 226 227 228 228 226 224 224 223 220 219 220 223 224 225 227 230 234 237 238 237 236 232 228 225 227 230 228
223 223 223 223 223 222 221 221 222 222 222 223 225 228 229 229 229 229 228 227 225 224 225 225 223 223 225 226 227 229 231 233 236 237 239 239 237 235 232 231 232 233
225 225 224 224 224 224 223 223 223 223 224 223 224 227 230 231 231 229 228 227 225 224 224 225 226 227 227 227 227 230 232 235 236 237 239 240 240 239 237 237 237 237
226 226 226 225 225 225 225 226 225 225 226 226 225 227 229 231 232 230 229 228 228 227 226 227 229 229 228 227 227 229 231 234 236 238 239 241 241 242 241 240 241 241
227 227 227 227 227 227 227 227 227 227 228 228 228 228 229 231 232 232 232 231 231 231 230 230 231 231 230 229 228 229 230 233 235 237 239 240 241 242 243 243 244 244
226 227 227 228 228 229 229 229 229 229 229 230 230 230 231 231 233 233 234 234 234 235 234 233 233 232 233 233 233 233 232 233 235 238 241 242 242 242 243 245 246 247
226 227 227 228 229 230 231 231 230 230 230 231 232 233 233 233 234 235 235 236 236 236 236 236 236 235 236 236 237 238 237 237 237 239 242 245 246 246 245 245 247 248
227 228 228 229 230 231 232 232 232 232 232 232 233 234 234 235 235 235 236 237 237 238 239 239 239 239 239 240 241 242 242 242 242 241 242 245 248 250 249 248 248 249
227 228 230 231 231 232 232 233 233 233 233 233 233 234 235 236 236 236 237 237 239 240 241 242 243 243 243 243 244 245 246 246 246 246 245 245 247 249 250 250 250 251
228 229 231 232 233 234 234 233 233 234 234 234 234 234 235 236 237 238 238 239 240 242 243 245 246 245 246 246 246 247 248 249 250 250 249 248 248 248 249 249 250 252
230 231 232 233 234 235 235 235 234 235 235 236 236 235 235 236 237 239 240 241 242 242 244 246 246 247 247 248 248 248 249 250 252 253 253 252 253 252 251 251 251 252
232 232 233 233 234 234 235 235 235 235 235 236 236 236 237 237 238 239 241 242 243 243 244 245 245 246 247 248 249 249 250 251 253 254 255 256 256 257 256 255 254 254
233 233 234 234 234 234 235 235 235 235 235 236 237 238 238 238 238 239 240 242 243 244 245 246 245 246 248 249 250 251 251 252 253 255 256 257 258 259 260 260 259 259
233 234 235 235 235 235 235 236 236 235 235 236 237 238 239 239 239 239 240 241 243 244 246 247 248 249 250 251 252 253 252 252 254 256 257 258 259 260 261 263 263 263
234 235 236 236 236 236 236 237 236 236 235 235 236 237 238 239 239 240 241 241 242 244 246 247 250 252 253 254 255 255 254 253 255 257 258 259 261 261 262 264 265 265
235 237 237 237 238 237 237 237 237 236 236 235 236 236 237 238 240 241 242 242 242 243 246 248 251 253 254 255 256 256 256 255 255 257 259 261 262 263 264 265 266 267
236 237 238 239 239 239 239 238 238 238 237 236 236 236 236 238 240 241 242 242 242 244 246 249 252 254 255 256 256 258 257 256 256 257 259 261 263 264 265 266 267 268
236 237 238 239 240 239 239 240 240 239 238 237 236 236 236 238 240 242 243 243 244 245 246 249 252 254 255 257 258 259 258 257 256 257 259 261 262 264 265 266 268 268
236 237 238 239 240 240 239 240 240 241 241 239 238 237 238 239 241 242 243 244 245 246 247 249 253 255 255 257 259 259 259 257 257 258 259 260 262 263 264 266 268 268
236 237 238 239 240 240 240 240 241 241 242 241 240 240 240 240 241 242 243 244 246 246 247 250 253 255 255 257 259 259 258 258 258 258 259 260 262 263 264 265 267 268
238 239 240 240 240 241 242 242 242 242 242 242 242 242 243 243 244 244 245 245 246 247 248 250 252 254 254 255 257 257 257 257 258 259 259 261 262 263 264 266 267 268
240 240 241 242 242 242 243 244 244 244 244 244 244 244 245 246 246 246 246 247 247 248 249 250 251 253 253 254 255 256 257 257 257 257 258 260 262 264 265 267 268 269
241 241 241 242 243 244 245 245 245 245 244 244 244 245 245 246 246 247 248 249 250 250 250 251 251 252 253 254 256 256 257 256 256 256 258 259 262 263 265 265 266 267
Height
1533 1535 1538 1540 1542 1544 1547 1549 1550 1553 1554 1556 1558 1560 1562 1564 1565 1567 1568 1570 1571 1573 1574 1575 1576 1578 1578 1579 1579 1580 1581 1581 1582 1583 1583 1584 1584 1585 1585 1585 1586 1586
1530 1533 1535 1538 1540 1542 1545 1547 1549 1551 1553 1554 1556 1559 1560 1562 1564 1565 1567 1568 1570 1571 1572 1574 1575 1576 1577 1578 1578 1579 1579 1580 1581 1581 1582 1583 1583 1584 1584 1585 1585 1586
1527 1530 1533 1535 1537 1540 1542 1545 1547 1549 1551 1553 1555 1557 1559 1560 1562 1563 1565 1566 1568 1569 1570 1572 1573 1574 1575 1576 1577 1577 1578 1578 1579 1580 1581 1581 1582 1583 1583 1584 1584 1584
1524 1527 1530 1532 1535 1538 1540 1542 1544 1546 1549 1551 1552 1554 1556 1558 1560 1561 1563 1564 1566 1567 1568 1570 1571 1572 1573 1574 1575 1576 1576 1577 1578 1579 1579 1580 1580 1581 1582 1582 1582 1583
1521 1524 1527 1530 1533 1536 1538 1540 1542 1544 1546 1548 1550 1552 1554 1556 1558 1559 1561 1562 1564 1565 1566 1568 1569 1570 1571 1572 1573 1574 1574 1575 1576 1577 1577 1578 1578 1579 1580 1580 1580 1581
1518 1521 1524 1527 1530 1533 1535 1537 1539 1541 1543 1545 1548 1550 1551 1553 1555 1557 1558 1560 1561 1563 1564 1565 1567 1568 1569 1570 1571 1571 1572 1573 1574 1575 1575 1575 1576 1577 1578 1578 1578 1579
1515 1518 1521 1524 1527 1529 1532 1534 1536 1538 1541 1543 1545 1547 1549 1551 1552 1554 1556 1557 1559 1560 1562 1563 1564 1565 1567 1568 1568 1569 1570 1571 1571 1572 1573 1573 1574 1575 1575 1576 1576 1577
1511 1514 1518 1521 1523 1526 1528 1531 1533 1536 1538 1540 1542 1544 1546 1548 1550 1552 1553 1555 1556 1558 1559 1560 1561 1563 1564 1565 1565 1566 1567 1568 1568 1569 1570 1571 1572 1572 1572 1573 1574 1574
1508 1511 1514 1517 1520 1522 1525 1527 1530 1533 1535 1537 1539 1541 1543 1545 1547 1549 1551 1552 1554 1555 1556 1557 1559 1560 1561 1561 1562 1563 1564 1565 1566 1566 1567 1568 1568 1569 1570 1570 1571 1571
1505 1508 1511 1513 1516 1518 1521 1524 1527 1530 1532 1534 1536 1538 1540 1542 1544 1546 1548 1550 1551 1552 1553 1554 1555 1556 1557 1558 1559 1560 1561 1562 1563 1564 1564 1565 1565 1566 1567 1567 1567 1567
1502 1504 1507 1509 1512 1515 1517 1521 1524 1526 1529 1531 1533 1535 1537 1539 1541 1543 1545 1546 1547 1548 1550 1551 1552 1553 1554 1555 1555 1557 1558 1559 1560 1561 1561 1561 1562 1562 1563 1564 1564 1564
1498 1500 1502 1505 1508 1511 1514 1517 1520 1523 1525 1527 1530 1532 1534 1535 1537 1539 1540 1542 1543 1545 1546 1547 1548 1550 1550 1551 1552 1553 1554 1555 1556 1557 1557 1558 1558 1559 1559 1560 1560 1561
1493 1496 1498 1501 1504 1507 1511 1514 1516 1519 1521 1523 1526 1528 1530 1531 1533 1535 1537 1538 1540 1541 1542 1543 1545 1546 1547 1548 1549 1550 1551 1551 1552 1552 1553 1554 1555 1555 1556 1557 1557 1558
1490 1492 1495 1498 1501 1504 1507 1510 1512 1514 1517 1519 1522 1524 1526 1527 1529 1531 1533 1535 1536 1538 1539 1540 1541 1542 1543 1545 1546 1546 1547 1547 1548 1548 1549 1550 1551 1551 1552 1553 1554 1555
1487 1490 1492 1495 1498 1500 1503 1505 1508 1511 1513 1516 1518 1519 1522 1524 1526 1528 1530 1531 1532 1534 1535 1536 1537 1538 1539 1540 1541 1542 1543 1543 1544 1544 1545 1546 1547 1547 1548 1549 1550 1551
1484 1487 1489 1492 1494 1496 1499 1502 1504 1507 1510 1512 1513 1516 1518 1520 1523 1525 1526 1527 1528 1530 1531 1532 1532 1534 1535 1536 1537 1538 1539 1540 1541 1541 1542 1543 1543 1544 1544 1545 1546 1547
1481 1483 1486 1488 1490 1493 1495 1498 1501 1504 1506 1508 1510 1512 1514 1517 1519 1520 1521 1523 1524 1526 1527 1527 1528 1529 1530 1532 1533 1534 1536 1537 1538 1538 1539 1539 1540 1540 1540 1541 1542 1543
1478 1480 1483 1485 1487 1490 1492 1495 1498 1500 1502 1504 1506 1508 1511 1513 1514 1516 1517 1519 1520 1521 1522 1523 1524 1525 1526 1528 1529 1531 1533 1534 1534 1535 1536 1536 1536 1537 1537 1538 1539 1539
1475 1477 1479 1482 1484 1487 1490 1492 1495 1496 1498 1500 1502 1505 1508 1509 1510 1512 1513 1514 1516 1517 1518 1519 1520 1521 1523 1524 1526 1527 1529 1531 1532 1532 1532 1532 1533 1534 1535 1535 1536 1536
1472 1474 1476 1479 1481 1484 1487 1489 1490 1492 1494 1497 1499 1502 1504 1505 1506 1507 1508 1510 1511 1513 1514 1515 1516 1517 1519 1521 1522 1524 1526 1527 1529 1529 1529 1529 1530 1531 1532 1532 1532 1532
1469 1471 1474 1476 1479 1481 1483 1485 1486 1488 1490 1493 1496 1498 1499 1501 1502 1503 1504 1506 1507 1509 1510 1511 1511 1513 1516 1517 1519 1521 1523 1525 1526 1526 1526 1526 1527 1527 1528 1528 1528 1529
1466 1468 1471 1473 1475 1477 1479 1481 1483 1485 1487 1490 1492 1494 1496 1497 1498 1500 1501 1503 1504 1506 1507 1507 1508 1510 1512 1514 1516 1518 1520 1522 1523 1523 1523 1523 1523 1524 1524 1524 1525 1525
1463 1465 1467 1470 1472 1473 1475 1477 1480 1482 1484 1487 1489 1490 1492 1493 1494 1496 1497 1499 1501 1502 1503 1503 1505 1507 1509 1511 1513 1515 1517 1519 1519 1519 1519 1519 1519 1520 1520 1521 1521 1521
1460 1462 1464 1466 1468 1469 1472 1474 1477 1479 1481 1483 1485 1486 1487 1489 1491 1492 1494 1496 1497 1498 1499 1500 1502 1504 1506 1508 1510 1512 1514 1515 1515 1515 1515 1515 1515 1516 1516 1517 1517 1517
1457 1458 1460 1462 1464 1466 1469 1471 1473 1476 1478 1479 1481 1482 1483 1485 1487 1489 1490 1491 1493 1494 1496 1497 1499 1501 1503 1505 1507 1509 1510 1511 1512 1512 1511 1510 1511 1512 1512 1513 1513 1513
1453 1455 1457 1459 1461 1463 1466 1468 1470 1472 1474 1476 1477 1478 1480 1482 1484 1485 1486 1487 1489 1491 1492 1494 1495 1498 1500 1501 1503 1505 1506 1507 1508 1507 1506 1507 1508 1508 1508 1508 1509 1510